Torna al catalogo

COSMOS 397 DEB

AttivoLEO
NORAD 5098·DEBRIS·🇷🇺 Russia

Lanciato Feb 25, 1971 da Baikonur Cosmodrome

Loading…

Prossimi Passaggi

TLE

Source: Space-Track
1  5098U 71015X   26224.22009153  .00000380  00000-0  15335-3 0  9995
2  5098  65.8319 139.1977 0715677 299.8292  53.3454 13.48003654658611

Traccia COSMOS 397 DEB in tempo reale con AllMySat

Download on the App Store